{"data":{"norad_id":58681,"epoch":"2026-09-20T03:40:31.734048Z","epoch_age_seconds":179790,"freshness":"STALE","line1":"1 58681U 23211Q   26263.15314507 -.00000401  00000+0 -50592-5 0  9994","line2":"2 58681  43.0010  67.1917 0001006 274.0592  86.0144 15.27573689152201","mean_motion":15.27573689,"eccentricity":0.0001006,"inclination_deg":43.001,"raan_deg":67.1917,"arg_perigee_deg":274.0592,"mean_anomaly_deg":86.0144,"bstar":-5.0592e-6,"rev_number":15220,"period_min":94.26713816619,"perigee_km":482.37775628674,"apogee_km":483.75823073143,"semimajor_km":6861.2049935091,"source":"CELESTRAK","updated_at":"2026-09-21T09:00:33.944995Z"}}